Temp
7 7 8 7 7 7 7 6 6 5 3 2 2 2 3 2 1 1 2 1 1 1 1 0 0 1 -0 1 1 2 1 2 1 1 1 0 0 0 1 2 2 2 2
8 8 8 7 8 7 7 6 6 6 4 3 2 2 2 2 1 2 2 1 1 1 1 1 0 0 -0 -0 -1 1 2 1 1 1 1 0 1 1 1 1 1 1 1
8 8 7 7 8 7 7 6 6 6 5 4 3 3 4 3 2 2 2 1 1 1 1 0 0 -0 0 -0 -1 1 1 -0 -1 0 1 1 1 1 0 0 0 0 0
8 8 8 8 8 7 7 7 7 6 6 4 3 4 4 5 1 2 2 1 1 1 -0 0 0 0 -0 -2 0 0 1 -1 -2 -1 -0 0 0 0 0 0 0 0 0
9 8 8 8 8 8 7 7 7 6 6 5 4 4 4 4 1 1 1 0 0 0 -1 1 0 -1 -2 -1 0 1 1 -1 -1 -0 -0 0 -0 -0 0 -0 -1 -0 0
9 8 8 8 8 8 7 7 7 7 7 6 5 4 3 3 2 1 1 1 0 -0 -0 0 -0 -1 -1 -1 -0 -0 -1 -1 -1 -0 -0 -0 -0 -0 -0 -0 -0 0 -0
9 8 8 8 7 8 7 7 7 7 7 7 6 4 3 3 3 2 2 0 -0 -0 -0 -1 -1 -1 -1 -0 -1 -1 -1 -1 -1 -1 -0 -0 -0 -1 -1 -1 -1 -0 -0
9 8 8 7 8 8 7 7 7 7 7 7 7 6 4 3 3 2 2 2 0 -0 -0 -0 -1 -1 -2 -1 -2 -2 -1 -1 -1 -1 -1 -1 -1 -1 -1 -1 -1 -1 -1
8 8 8 7 7 7 8 7 7 7 7 7 7 7 6 5 4 3 2 1 1 -0 1 -0 -0 -1 -1 -1 -1 -2 -1 -1 -1 -1 -1 -1 -1 -1 -1 -1 -1 -1 -1
8 8 8 7 7 7 7 7 7 7 7 7 7 7 6 6 5 5 4 4 2 2 1 0 1 1 0 -0 -1 -1 -1 -2 -0 -0 -0 -1 -1 -1 -1 -1 -1 -1 -1
7 7 7 7 6 6 7 7 7 6 7 7 7 7 6 6 6 6 5 5 4 4 4 4 2 1 1 0 0 0 0 -0 -0 0 0 0 -0 -0 -1 -1 -1 -1 -1
7 7 6 5 6 6 6 6 6 6 6 6 6 6 6 6 6 6 6 6 6 5 6 5 4 4 3 3 2 2 1 1 1 1 0 1 0 -0 0 -0 0 -0 0
6 6 6 6 5 4 4 5 5 5 5 6 6 6 6 6 6 6 6 5 5 5 5 5 5 5 5 4 4 3 3 3 3 3 3 3 2 2 2 2 1 1 0
6 6 6 5 5 5 5 4 4 4 4 5 5 6 6 6 6 6 6 6 5 5 5 5 5 5 4 4 4 4 4 4 4 3 3 3 2 2 2 1 1 0 -0
5 6 6 5 5 5 4 4 5 5 5 4 4 5 5 6 5 5 6 5 5 5 5 5 5 5 5 5 5 4 4 4 3 3 3 3 2 2 2 1 1 0 -0
5 6 6 5 5 5 4 3 3 3 5 5 6 5 5 5 6 6 5 5 5 5 5 5 5 5 5 5 5 4 4 4 4 3 3 3 2 2 2 1 1 0 -0
5 5 4 4 4 4 4 4 4 3 2 3 4 5 4 3 5 6 6 6 5 5 5 5 5 5 5 5 4 4 3 3 4 3 3 3 3 2 1 1 1 0 -0
3 2 2 2 2 3 3 4 4 4 3 3 2 3 4 4 3 4 5 6 6 6 6 5 5 5 5 5 4 3 3 3 3 3 3 3 3 2 2 1 -0 -0 -0
1 1 1 2 2 2 3 3 3 3 4 4 4 3 3 3 4 4 4 5 4 5 6 6 5 5 6 5 5 4 3 2 2 3 3 3 2 2 2 1 -0 -1 -1
0 1 1 1 2 2 2 2 2 3 3 3 3 4 4 3 3 3 4 5 4 4 4 5 6 6 6 6 5 5 4 4 4 3 2 2 2 1 0 -1 -1 -1 -1
0 0 1 1 2 2 2 2 3 3 3 3 3 3 3 3 4 4 3 4 4 3 3 4 5 5 5 5 5 4 4 3 2 2 2 2 1 0 -1 -1 -1 -0 -0
-0 -0 0 0 1 1 1 2 2 2 3 3 3 3 3 3 3 3 3 3 4 3 3 3 3 4 4 3 2 1 1 1 1 1 1 0 0 0 0 -0 -1 -1 -0
-1 -1 -1 -1 -0 -0 -0 0 1 1 2 2 3 4 4 3 2 3 2 3 2 2 3 3 2 3 2 2 1 2 1 1 1 1 -0 0 0 0 -0 -0 -1 -1 -1
-1 -2 -1 -1 -1 -1 -1 -1 -0 -0 0 1 1 2 2 3 3 1 1 2 2 1 1 1 1 1 1 1 0 1 0 -0 0 0 0 -1 -1 0 -3 -4 -4 -3 -4
-2 -3 -3 -3 -2 -2 -2 -2 -1 -1 -1 -1 -0 -0 0 0 0 -1 0 1 0 -1 -0 0 0 1 -0 -1 1 0 0 0 -1 -1 -1 -2 -8 -5 -6 -7 -8 -8 -7
-3 -3 -3 -3 -3 -3 -2 -2 -2 -2 -1 -2 -2 -2 -1 -1 -2 -2 -2 -2 -2 -2 -1 -0 -0 -1 -2 -1 -1 -2 -3 -4 -5 -7 -7 -7 -7 -8 -8 -8 -7 -7 -8
Height
3066 3066 3067 3067 3065 3064 3063 3061 3058 3056 3056 3058 3061 3065 3065 3064 3066 3072 3077 3081 3087 3091 3097 3100 3106 3111 3117 3123 3127 3132 3135 3138 3142 3145 3148 3150 3153 3155 3157 3159 3163 3164 3165
3061 3062 3064 3064 3063 3061 3060 3059 3057 3056 3055 3055 3056 3057 3057 3058 3061 3066 3072 3079 3083 3089 3093 3097 3102 3108 3112 3118 3123 3127 3131 3134 3138 3142 3144 3147 3150 3152 3155 3156 3156 3157 3158
3056 3058 3061 3062 3061 3060 3058 3057 3056 3055 3053 3053 3054 3054 3054 3056 3058 3063 3069 3075 3080 3085 3090 3093 3098 3103 3109 3112 3118 3124 3127 3131 3133 3138 3141 3144 3146 3149 3149 3151 3153 3154 3153
3051 3055 3056 3060 3059 3058 3057 3056 3055 3054 3052 3050 3052 3053 3055 3055 3055 3060 3066 3072 3077 3082 3087 3090 3096 3099 3104 3111 3117 3121 3124 3125 3131 3135 3137 3140 3143 3144 3146 3146 3147 3149 3150
3046 3049 3052 3056 3057 3057 3055 3054 3053 3053 3052 3050 3050 3051 3053 3054 3056 3062 3067 3071 3075 3079 3084 3089 3093 3097 3102 3109 3113 3117 3119 3124 3128 3132 3134 3137 3138 3139 3140 3141 3144 3143 3145
3042 3046 3050 3053 3055 3055 3055 3053 3052 3052 3051 3050 3050 3051 3052 3054 3056 3060 3064 3070 3073 3078 3080 3084 3089 3094 3100 3104 3110 3114 3117 3121 3124 3127 3130 3131 3133 3135 3135 3135 3138 3139 3139
3038 3042 3046 3049 3051 3052 3052 3052 3051 3051 3052 3051 3050 3050 3052 3055 3057 3061 3063 3066 3070 3072 3076 3080 3085 3089 3095 3100 3103 3108 3111 3114 3117 3121 3124 3127 3128 3129 3130 3131 3132 3131 3132
3035 3039 3043 3046 3048 3049 3050 3050 3050 3049 3051 3051 3051 3051 3051 3053 3056 3058 3061 3064 3066 3070 3073 3077 3082 3086 3090 3094 3098 3101 3105 3109 3112 3115 3117 3119 3121 3124 3125 3125 3127 3125 3126
3033 3036 3039 3042 3044 3046 3048 3048 3049 3049 3049 3050 3051 3051 3052 3053 3054 3056 3058 3060 3062 3066 3069 3073 3075 3080 3084 3088 3093 3096 3098 3102 3107 3109 3111 3112 3113 3114 3115 3117 3118 3117 3115
3032 3033 3036 3039 3041 3042 3044 3046 3047 3048 3048 3048 3050 3052 3052 3053 3053 3054 3056 3058 3060 3061 3063 3067 3071 3075 3078 3081 3085 3088 3092 3094 3097 3100 3102 3104 3106 3107 3108 3109 3109 3108 3106
3031 3034 3033 3035 3037 3039 3040 3041 3043 3045 3046 3047 3047 3049 3051 3052 3052 3054 3055 3056 3058 3059 3061 3063 3065 3069 3073 3076 3079 3082 3084 3086 3090 3092 3093 3095 3097 3098 3099 3100 3100 3099 3099
3025 3027 3028 3029 3034 3035 3037 3038 3039 3040 3042 3045 3045 3045 3046 3048 3051 3052 3054 3055 3056 3058 3060 3061 3062 3064 3066 3068 3070 3072 3074 3077 3080 3083 3084 3085 3088 3088 3089 3089 3089 3089 3089
3023 3025 3028 3027 3028 3030 3034 3036 3036 3036 3037 3040 3042 3043 3044 3044 3047 3049 3051 3051 3053 3055 3056 3056 3058 3060 3062 3062 3064 3065 3067 3069 3071 3074 3074 3077 3077 3078 3079 3079 3079 3078 3078
3021 3023 3025 3027 3027 3028 3028 3030 3030 3032 3034 3035 3036 3038 3040 3041 3042 3043 3045 3046 3048 3048 3049 3051 3053 3054 3055 3056 3057 3059 3060 3062 3063 3064 3065 3067 3067 3068 3069 3069 3069 3069 3066
3019 3021 3023 3027 3027 3026 3026 3026 3027 3027 3029 3029 3031 3030 3032 3035 3037 3037 3037 3039 3040 3042 3043 3044 3045 3046 3047 3048 3050 3051 3051 3052 3053 3054 3054 3055 3056 3057 3058 3057 3057 3056 3053
3016 3019 3021 3022 3023 3024 3024 3023 3022 3020 3020 3020 3022 3025 3024 3025 3027 3029 3030 3031 3032 3033 3034 3034 3035 3036 3037 3040 3041 3042 3043 3043 3043 3044 3044 3044 3045 3045 3045 3045 3043 3042 3040
3008 3012 3014 3015 3017 3017 3017 3017 3018 3017 3015 3014 3014 3015 3015 3016 3017 3017 3018 3020 3022 3023 3024 3025 3025 3025 3027 3029 3030 3032 3031 3031 3031 3031 3031 3031 3031 3032 3032 3032 3030 3029 3027
3005 3009 3010 3010 3010 3009 3010 3010 3011 3011 3011 3011 3009 3008 3007 3005 3007 3007 3007 3009 3011 3009 3011 3012 3013 3012 3014 3015 3017 3019 3019 3017 3017 3017 3017 3017 3018 3019 3018 3017 3016 3014 3012
3004 3005 3004 3005 3005 3004 3003 3002 3001 3001 3001 3002 3002 3001 2998 2998 2997 2996 2995 2998 2998 2996 2997 2998 2999 2998 3001 3002 3004 3005 3005 3005 3003 3003 3003 3003 3004 3005 3005 3005 3002 3000 2998
3003 3001 2998 2999 2998 2998 2996 2994 2994 2992 2991 2990 2989 2989 2989 2988 2987 2986 2984 2985 2984 2984 2984 2982 2984 2985 2987 2988 2990 2991 2991 2990 2990 2989 2990 2991 2991 2990 2991 2990 2989 2985 2981
3000 2998 2995 2993 2991 2990 2988 2986 2984 2983 2981 2979 2977 2976 2975 2974 2974 2974 2974 2973 2973 2972 2971 2971 2971 2972 2973 2974 2975 2977 2977 2978 2978 2978 2977 2976 2976 2977 2976 2975 2972 2971 2967
2996 2995 2994 2992 2990 2986 2983 2979 2976 2973 2969 2966 2964 2964 2962 2961 2960 2959 2960 2960 2960 2960 2960 2962 2962 2960 2961 2961 2961 2962 2965 2965 2965 2964 2963 2962 2962 2962 2961 2960 2957 2954 2947
2990 2989 2988 2986 2984 2980 2977 2974 2970 2966 2963 2959 2955 2951 2947 2946 2945 2945 2945 2945 2945 2946 2947 2948 2949 2948 2947 2947 2948 2948 2951 2951 2951 2948 2946 2945 2944 2946 2944 2941 2935 2929 2931
2983 2982 2981 2979 2976 2973 2970 2966 2962 2958 2955 2950 2945 2941 2936 2933 2930 2929 2930 2930 2930 2931 2934 2935 2935 2934 2933 2932 2931 2932 2932 2933 2932 2931 2925 2926 2924 2923 2924 2916 2919 2917 2915
2975 2974 2972 2971 2969 2966 2963 2960 2956 2953 2949 2944 2939 2933 2928 2922 2916 2916 2915 2916 2916 2917 2918 2921 2920 2915 2920 2903 2913 2910 2914 2911 2909 2917 2902 2911 2917 2901 2911 2910 2909 2910 2912
2968 2967 2965 2962 2959 2956 2954 2950 2947 2944 2940 2935 2931 2926 2920 2913 2909 2906 2905 2906 2906 2906 2906 2906 2907 2900 2904 2895 2895 2895 2894 2897 2901 2906 2902 2902 2904 2911 2904 2906 2905 2906 2907
Wind_Speed
23 22 20 14 10 10 7 10 10 9 11 16 18 17 23 26 22 27 31 28 29 33 37 41 40 40 35 33 31 28 25 24 22 21 20 21 20 18 16 18 17 19 18
24 25 18 12 9 9 7 8 9 9 10 14 16 16 16 15 24 28 30 34 29 38 41 42 43 42 36 39 33 32 29 25 22 20 20 20 20 20 19 18 19 18 20
25 25 21 11 9 8 7 6 9 8 9 11 12 14 10 18 24 22 34 28 32 40 40 45 43 38 43 34 31 31 31 27 21 20 17 17 19 18 20 21 21 20 23
23 22 19 14 10 6 8 5 7 8 8 7 8 13 10 2 10 27 37 32 29 33 47 43 48 44 40 34 33 32 35 39 23 23 19 17 18 19 22 24 23 21 22
26 23 21 17 13 6 7 6 5 7 7 5 6 12 11 7 10 21 31 14 20 37 48 49 49 49 37 38 35 36 40 30 23 24 21 20 21 20 21 22 18 21 19
25 24 20 19 16 10 6 7 3 5 6 6 4 7 10 11 12 20 31 23 21 30 40 36 46 49 43 43 42 36 37 34 29 27 27 24 24 24 23 25 25 26 27
26 25 22 16 12 8 7 7 5 3 5 5 4 5 7 13 14 14 19 23 19 25 33 44 47 45 45 43 41 40 42 37 33 32 31 29 29 27 28 29 31 32 31
25 19 17 14 10 5 9 7 6 4 3 4 3 3 6 13 15 15 15 15 20 17 20 29 38 42 39 41 40 42 41 37 33 34 34 34 33 34 35 33 33 35 36
18 12 13 14 12 7 4 9 7 7 5 4 5 4 4 6 12 13 16 19 19 22 22 22 27 35 38 41 44 47 44 41 42 39 39 40 39 40 40 34 37 39 43
10 11 8 8 6 6 7 7 11 9 10 9 7 7 6 5 7 11 12 15 17 19 26 27 25 27 35 43 44 42 44 46 41 41 42 43 44 45 45 39 40 43 44
13 7 13 11 10 10 7 10 9 14 14 14 10 10 9 8 8 8 10 12 16 16 16 22 27 30 32 33 36 37 41 46 43 44 45 44 44 46 44 42 43 44 44
18 16 12 13 10 11 13 13 10 10 17 16 17 14 13 13 13 12 12 14 15 16 16 18 22 25 28 28 31 31 36 40 41 43 46 43 44 45 43 41 41 43 42
18 12 13 8 10 17 9 11 12 10 10 16 18 20 19 18 16 16 17 18 19 20 21 22 21 23 25 28 29 31 33 35 36 37 38 36 39 40 39 39 38 37 41
19 14 12 8 11 12 16 16 17 17 10 11 18 21 23 23 23 22 23 24 24 25 26 25 25 27 27 29 30 31 32 33 32 34 36 36 38 36 36 39 42 42 42
19 18 14 11 10 14 16 17 19 21 20 19 17 20 24 27 28 29 28 29 30 30 31 31 32 33 33 32 32 33 33 35 36 36 37 37 38 38 38 41 41 43 44
10 13 19 20 21 18 15 15 14 22 26 28 25 23 21 26 29 32 35 35 35 35 37 36 36 38 38 38 37 37 37 38 39 39 40 41 41 41 41 43 43 46 48
19 21 19 19 18 21 23 25 24 18 17 24 31 31 26 28 28 32 36 37 39 42 43 43 43 43 43 41 41 41 43 42 42 42 43 43 42 42 44 45 46 47 49
20 17 18 18 17 20 21 24 24 25 28 26 25 30 37 33 30 34 35 37 42 45 46 46 46 47 48 48 47 46 47 47 46 47 48 48 46 45 45 47 48 50 51
17 19 21 20 20 17 17 18 20 24 27 28 33 34 37 39 39 41 41 37 38 42 45 47 48 49 47 47 47 48 50 51 54 53 53 53 50 48 46 48 46 46 46
15 20 25 25 25 23 22 20 21 21 21 24 28 31 35 39 42 45 47 47 41 41 42 45 47 49 50 48 47 48 51 53 56 56 57 53 53 48 47 43 46 44 49
17 19 23 26 27 26 26 26 27 27 26 28 28 30 34 38 41 42 44 46 47 46 47 47 46 48 49 53 52 51 49 52 54 55 55 54 51 51 49 50 46 51 56
21 22 23 24 25 26 28 30 31 33 35 37 36 35 33 37 42 43 42 48 50 50 48 46 44 43 48 51 49 48 50 49 51 54 55 53 55 56 56 53 55 62 66
24 26 27 28 28 29 31 33 35 35 35 36 37 39 42 39 39 43 43 42 52 51 52 51 48 48 44 44 48 54 49 56 56 54 59 58 58 63 61 65 62 52 55
26 27 28 29 29 30 33 34 34 35 36 38 40 40 42 42 44 41 42 46 47 51 49 52 53 49 48 49 48 52 53 60 57 65 66 66 71 70 50 39 40 44 38
26 26 27 28 29 29 30 31 30 31 33 35 37 37 36 40 36 34 38 42 47 49 49 47 52 54 61 42 56 64 65 57 49 59 58 52 22 30 25 20 16 16 19
27 28 30 32 34 34 34 33 32 32 31 31 32 26 27 28 30 30 31 31 33 39 42 46 53 50 47 51 50 41 38 33 23 17 17 16 14 15 14 17 22 25 27
Wind_Direction
252 269 294 301 313 304 314 318 321 301 251 239 231 235 242 248 239 197 205 200 200 201 206 191 191 199 199 207 201 199 199 199 197 199 205 210 214 222 236 236 233 235 241
238 259 287 297 315 308 304 322 322 317 271 251 241 253 250 228 195 193 200 196 206 200 211 204 198 195 196 209 207 200 200 201 206 207 211 218 226 223 228 236 254 261 258
237 255 269 292 300 316 297 322 323 328 308 256 254 243 240 188 179 186 199 200 204 205 213 209 197 203 191 196 204 200 200 199 204 225 223 224 233 237 236 236 238 243 254
244 249 261 279 294 307 303 314 322 332 340 296 229 221 255 323 171 202 197 198 202 225 206 206 201 201 193 203 208 205 204 216 204 220 223 234 238 242 243 246 243 239 249
238 238 255 273 280 290 295 294 319 330 351 337 237 253 250 206 175 199 203 223 212 207 207 213 213 210 207 203 209 209 216 231 208 219 232 239 240 245 247 241 242 246 258
233 232 247 260 273 278 273 274 280 314 339 351 283 245 247 229 202 202 207 219 215 210 221 228 224 220 210 208 209 222 233 242 217 222 232 240 247 248 253 261 261 260 262
216 223 231 262 296 258 233 267 265 291 321 343 335 265 246 224 220 212 210 200 208 212 217 221 220 221 221 219 221 229 240 236 220 229 239 244 248 250 248 254 262 269 268
207 218 231 261 276 245 220 247 266 257 279 313 320 285 250 233 229 225 223 226 223 223 221 222 225 228 227 224 224 232 236 248 231 236 246 253 254 257 255 249 255 260 263
193 217 259 254 263 262 244 234 252 261 250 254 279 287 264 250 240 242 228 228 231 221 225 230 228 230 229 229 231 235 242 241 237 240 244 250 254 263 270 250 254 264 266
204 225 234 256 299 287 266 252 242 246 244 237 237 241 239 234 233 235 245 235 235 226 218 220 226 228 233 233 235 237 240 243 248 246 247 253 258 263 267 269 267 273 274
127 153 249 257 263 296 302 300 284 249 245 251 240 239 246 239 233 235 234 236 233 232 230 226 221 223 229 234 239 242 243 243 249 254 255 257 261 264 266 266 267 269 272
155 159 169 196 234 268 296 312 304 286 249 241 246 245 239 243 241 237 229 225 222 224 226 223 224 224 222 222 226 229 239 243 248 251 253 256 258 261 262 263 264 266 269
152 136 166 176 178 214 246 317 335 337 295 256 247 250 252 246 249 249 246 239 234 232 232 232 231 230 232 232 232 233 238 243 245 248 252 256 258 260 262 262 267 273 273
174 179 169 172 199 213 227 241 260 275 292 279 268 255 253 258 253 247 245 248 248 244 244 247 250 247 243 243 243 243 246 247 250 253 257 259 260 263 266 267 268 272 277
196 206 206 193 193 214 225 234 243 265 266 266 275 267 267 258 254 253 251 248 250 251 251 248 250 252 252 252 251 253 255 256 257 258 260 263 266 268 269 268 269 268 272
288 263 245 248 238 231 224 224 240 255 254 262 269 270 269 272 261 256 253 254 252 252 252 254 255 255 256 258 259 260 259 259 259 261 263 264 266 267 268 269 270 268 269
272 274 289 287 277 254 251 249 243 238 244 253 257 258 261 276 271 265 260 256 255 256 255 256 257 259 261 260 258 258 260 261 261 262 263 265 267 268 267 266 267 269 272
279 294 298 309 302 291 286 277 268 258 251 249 252 262 269 262 266 272 265 259 258 258 258 258 260 261 262 265 263 262 260 262 262 261 262 263 265 268 269 269 268 266 268
287 296 302 306 308 306 306 296 294 289 281 270 263 257 261 269 272 267 264 258 266 265 263 262 261 261 261 260 261 260 260 260 260 260 263 265 266 265 265 267 269 268 267
283 294 295 297 304 307 311 313 308 299 299 293 278 270 265 259 263 269 272 269 261 267 272 268 261 256 257 259 259 260 258 256 257 260 263 267 266 265 264 265 265 269 270
304 298 297 299 303 307 310 312 312 311 309 299 302 291 272 265 263 260 263 269 271 270 269 270 269 264 260 260 261 262 261 263 261 263 265 264 264 264 260 260 256 258 262
298 297 297 299 300 304 308 312 312 310 311 308 306 300 294 276 264 261 259 258 263 266 270 275 278 275 274 273 269 269 270 265 265 268 266 263 263 262 259 256 257 256 257
294 298 300 300 303 307 310 313 312 311 309 304 301 297 298 298 275 261 257 259 255 255 259 263 270 272 272 270 271 271 271 263 263 257 257 258 259 263 259 257 254 251 263
296 297 298 299 303 306 309 311 310 309 307 307 306 307 305 295 292 265 259 256 254 252 254 261 265 267 268 266 271 268 266 261 262 254 246 254 254 250 249 241 250 257 253
302 301 300 300 301 303 305 311 308 311 304 307 317 310 303 308 294 278 270 258 253 251 252 259 253 249 265 264 260 252 257 250 256 258 252 249 244 242 250 250 256 274 276
302 302 302 302 303 305 305 312 311 312 312 312 317 315 315 323 300 274 273 272 268 256 252 249 247 258 243 269 251 252 245 240 235 237 234 231 242 266 263 270 277 277 280